This demonstration page uses our WeatherBlox Daily Observations layout. Learn more.

39.29038, -76.61219

Hourly Observations for September 14, 2016

Temp ( °F °C ) Dew Point ( °F °C ) Humidity (%) Winds ( mph kmh ) Pressure ( in mb ) Visibility ( mi km ) Precip ( " mm )
12:54 am 00:54 undefined 75 23.9 62 16.7 64 64 undefined N/A 30.11 1020 N/A 0 0
1:54 am 01:54 undefined 73 22.8 62 16.7 69 69 undefined N/A 30.1 1019 N/A 0 0
2:54 am 02:54 undefined 72 22.2 62 16.7 71 71 undefined N/A 30.09 1019 N/A 0 0
3:54 am 03:54 undefined 72 22.2 62 16.7 71 71 undefined N/A 30.09 1019 N/A 0 0
4:54 am 04:54 undefined 71 21.7 62 16.7 73 73 undefined N/A 30.09 1019 N/A 0 0
5:54 am 05:54 undefined 71 21.7 62 16.7 73 73 undefined N/A 30.1 1019 N/A 0 0
6:54 am 06:54 undefined 70 21.1 62 16.7 76 76 undefined N/A 30.11 1020 N/A 0 0
7:54 am 07:54 undefined 73 22.8 63 17.2 71 71 undefined N/A 30.11 1020 N/A 0 0
8:54 am 08:54 undefined 75 23.9 64 17.8 69 69 undefined N/A 30.11 1020 N/A 0 0
9:54 am 09:54 undefined 79 26.1 66 18.9 65 65 undefined N/A 30.11 1020 N/A 0 0
10:54 am 10:54 undefined 83 28.3 64 17.8 53 53 undefined N/A 30.11 1020 N/A 0 0
11:54 am 11:54 undefined 85 29.4 61 16.1 45 45 undefined N/A 30.1 1019 N/A 0 0
12:54 pm 12:54 undefined 89 31.7 59 15 36 36 undefined N/A 30.07 1018 N/A 0 0
1:54 pm 13:54 undefined 89 31.7 54 12.2 30 30 undefined N/A 30.05 1018 N/A 0 0
2:54 pm 14:54 undefined 90 32.2 50 10 25 25 undefined N/A 30.03 1017 N/A 0 0
3:54 pm 15:54 undefined 90 32.2 54 12.2 29 29 undefined N/A 30.02 1017 N/A 0 0
4:54 pm 16:54 undefined 90 32.2 57 13.9 33 33 undefined N/A 30.02 1017 N/A 0 0
5:54 pm 17:54 undefined 89 31.7 58 14.4 35 35 undefined N/A 30.02 1017 N/A 0 0
6:54 pm 18:54 undefined 88 31.1 58 14.4 36 36 undefined N/A 30.02 1017 N/A 0 0
7:54 pm 19:54 undefined 86 30 56 13.3 36 36 undefined N/A 30.03 1017 N/A 0 0
8:54 pm 20:54 undefined 85 29.4 58 14.4 40 40 undefined N/A 30.05 1018 N/A 0 0
9:54 pm 21:54 undefined 82 27.8 62 16.7 51 51 undefined N/A 30.07 1018 N/A 0 0
10:54 pm 22:54 undefined 79 26.1 62 16.7 56 56 undefined N/A 30.09 1019 N/A 0 0
11:54 pm 23:54 undefined 77 25 63 17.2 62 62 undefined N/A 30.12 1020 N/A 0 0

Powered by AerisWeather